CP-7 (DAVE) (43615 NORAD) Tracking and Keplerian Element Data

This shows tracking and keplerian element data for the satellite.

Feedback or suggestion? Click here.




ElementValue
Catalog43615
NameCP-7 (DAVE)
Epoch Orbit997
Epoch Day323.52408973
Epoch Year2018
RAAN276.3629
Inclination93.0324
Eccentricity0.0019025
Argument of Perigee45.6381
Mean Anonmoly314.6422
Mean Motion15.36513686
Decay Rate1.989E-05
L11 43615U 18070C 18323.52408973 .00001989 00000-0 55762-4 0 9996
L22 43615 93.0324 276.3629 0019025 45.6381 314.6422 15.36513686 9972

Live tracking and technical data element details for CP-7 (DAVE) (NORAD 43615). CP-7 (DAVE) can be tracked NOW for your location showing map with azimuth and elevation plus other details from your city location.

Track the satellite on the map from your city or location and see movement details for azimuth, elevation, latitude, longitude, range, height, and movement on the map or in text.







IsCatalogInMostPopularTable: catalog: 43615, numindb: 23
Update: records affected: 1



GetName: 43615 CP-7 (DAVE)

Hit Count: updated at: Tue, 20 Nov 2018 12:23:23 GMT